Other Public Products
Issued by NWS Grand Forks, ND

Home | Current Version | Previous Version | Text Only | Print | Product List | Glossary Off
Versions: 1 2 3 4 5 6 7 8 9 10 11 12 13 14 15 16 17 18 19 20 21 22 23 24 25 26 27 28 29 30 31 32 33 34 35 36 37 38 39 40 41 42 43 44 45 46 47 48 49 50

665
FPUS83 KFGF 300631
OPUFGF
PRAIRIE TO PINES WEATHER ROUNDUP
NATIONAL WEATHER SERVICE EASTERN NORTH DAKOTA/GRAND FORKS ND
100 AM CDT FRI SEP 30 2016

 **SATELLITE DATA USED TO AUGMENT SKY COVER AT AUTOMATED STATIONS**
 *****  WEATHER ACROSS EASTERN NORTH DAKOTA  *****

CITY           SKY/WX    TMP DP  RH WIND       PRES   REMARKS
GRAND FORKS    CLEAR     49  44  83 SE9       30.36F
6HR MIN TEMP:  49; 6HR MAX TEMP:  62;

GRAND FORKS AF CLEAR     46  43  88 SE7       30.36F
GRAND CITY NWS   N/A     48 N/A N/A SE6         N/A
BUXTON           N/A     57  56  98 SE7         N/A
DEVILS LAKE    CLEAR     53  46  77 SE16      30.32S
6HR MIN TEMP:  53; 6HR MAX TEMP:  60;

FARGO          CLEAR     51  45  79 E8        30.37F
6HR MIN TEMP:  51; 6HR MAX TEMP:  62;

WAHPETON ARPT  CLEAR     50  43  76 E6        30.38S
$$

 *****  WEATHER ACROSS CENTRAL AND WESTERN NORTH DAKOTA  *****

CITY           SKY/WX    TMP DP  RH WIND       PRES   REMARKS
JAMESTOWN      CLEAR     48  45  89 SE8       30.32F
6HR MIN TEMP:  48; 6HR MAX TEMP:  61;

BISMARCK       PTCLDY    52  45  77 SE10      30.25S
6HR MIN TEMP:  51; 6HR MAX TEMP:  65;

MINOT          CLOUDY    49  45  86 E5        30.21F
6HR MIN TEMP:  49; 6HR MAX TEMP:  68;

MINOT AFB      PTCLDY    49  45  88 SE9       30.20F
6HR MIN TEMP:  49; 6HR MAX TEMP:  66;

GARRISON         N/A     55  46  71 SE15      30.20F
6HR MIN TEMP:  54; 6HR MAX TEMP:  65;

WILLISTON      PTCLDY    62  42  47 SE12G21   30.10F
6HR MIN TEMP:  62; 6HR MAX TEMP:  72;

DICKINSON      MOCLDY    56  41  57 SE20      30.12F
6HR MIN TEMP:  56; 6HR MAX TEMP:  67;

HETTINGER      PTCLDY    58  42  55 SE15      30.15F
6HR MIN TEMP:  58; 6HR MAX TEMP:  71;

$$

 *****  OTHER OBSERVATIONS NORTHEAST NORTH DAKOTA  *****

CITY           SKY/WX    TMP DP  RH WIND       PRES   REMARKS
WALHALLA       FAIR      46  43  87 SE3       30.34S
LANGDON        FAIR      50  46  87 S12       30.33S
CAVALIER       FAIR      50  46  87 S7        30.35F
GRAFTON        FAIR      48  48 100 SE7       30.38S
CANDO          FAIR      46  46 100 SE9       30.33S
FORT TOTTEN      N/A     51  46  83 SE8       29.95S
ROLLA          FAIR      48  46  93 S12       30.29F
RUGBY          FAIR      52  46  82 SE12G20   30.27S
 ***** THE ABOVE OBSERVATIONS ARE NON NWS ARE NOT QUALITY
        CONTROLLED AND MAY MIS-REPORT RAIN FOR SNOW...
$$

 *****  OTHER OBSERVATIONS SOUTHEAST NORTH DAKOTA *****

CITY           SKY/WX    TMP DP  RH WIND       PRES   REMARKS
COOPERSTOWN    FAIR      50  45  81 SE10      30.35S
VALLEY CITY    FAIR      48  48 100 SE7       30.36F
OAKES          NOT AVBL
GWINNER        FAIR      46  45  93 SE7       30.35F
SHEYENNE NWR     N/A     45  43  91 SE7       29.95S
BUFFALO          N/A     47  43  88 E10         N/A
WYNDMERE         N/A     43  41  93 CALM        N/A
 ***** THE ABOVE OBSERVATIONS ARE NON NWS ARE NOT QUALITY
       CONTROLLED AND MAY MIS-REPORT RAIN FOR SNOW...
$$

  *****  WEATHER ACROSS NORTHERN MINNESOTA  *****

CITY           SKY/WX    TMP DP  RH WIND       PRES   REMARKS
FLAG ISLAND    CLOUDY    55  50  82 SE12      30.41F
WARROAD        CLEAR     48  45  87 SE6       30.42F
ROSEAU         CLEAR     46  43  87 SE3       30.41S FOG
HALLOCK        CLEAR     50  46  87 SE9       30.37S
THF RVR FALLS  CLEAR     47  43  86 SE7       30.41S
6HR MIN TEMP:  47; 6HR MAX TEMP:  58;

HALSTAD          N/A     46  43  90 SE8         N/A
FOSSTON        CLEAR     46  43  87 SE6       30.41S
BAUDETTE       CLOUDY    53  48  83 SE7       30.44S
6HR MIN TEMP:  53; 6HR MAX TEMP:  57;

WASKISH        CLOUDY    52  48  87 SE5       30.43F
CROOKSTON      CLEAR     48  45  87 SE8       30.39S
$$
  *****  WEATHER ACROSS CENTRAL AND WEST MINNESOTA  *****

CITY           SKY/WX    TMP DP  RH WIND       PRES   REMARKS
BEMIDJI        CLOUDY    51  47  85 SE9       30.41F
PARK RAPIDS    CLEAR     50  45  83 SE5       30.42S
6HR MIN TEMP:  50; 6HR MAX TEMP:  58;

WADENA         CLEAR     45  45 100 E6        30.41S
DETROIT LAKES  CLEAR     52  46  82 SE9       30.41S
MOORHEAD       CLEAR     48  45  87 SE6       30.38S
FERGUS FALLS   CLEAR     52  46  82 E8        30.40F
ELBOW LAKE     FAIR      49  47  94 SE8       30.39S
MORRIS MN      CLEAR     48  46  93 E8        30.38S
STAPLES        CLEAR     43  43 100 CALM      30.42S FOG
WHEATON        CLEAR     45  45 100 SE7       30.39F
$$
  *****  WEATHER ELSEWHERE ACROSS MINNESOTA  *****

CITY           SKY/WX    TMP DP  RH WIND       PRES   REMARKS
DULUTH         CLOUDY    51  51 100 E14       30.44F FOG
6HR MIN TEMP:  50; 6HR MAX TEMP:  53;

INTRNTL FALLS  CLOUDY    47  45  93 SE5       30.45F
6HR MIN TEMP:  44; 6HR MAX TEMP:  55;

ELY            CLEAR     39  39 100 CALM      30.46S
CLOQUET        CLOUDY    52  48  87 E5        30.44F FOG
BRAINERD       MOCLDY    49  48  97 CALM      30.42F
6HR MIN TEMP:  47; 6HR MAX TEMP:  56;

HIBBING        FOG       45  45 100 SE5       30.45F VSB 3/4
6HR MIN TEMP:  38; 6HR MAX TEMP:  55;

ALEXANDRIA     CLEAR     49  48  97 E8        30.41F
6HR MIN TEMP:  48; 6HR MAX TEMP:  58;

SAINT CLOUD    CLEAR     50  49  96 NE3       30.41S
6HR MIN TEMP:  50; 6HR MAX TEMP:  60;

MINNEAPOLIS    CLEAR     56  51  84 CALM      30.39S
6HR MIN TEMP:  56; 6HR MAX TEMP:  64;

$$

  *****  WEATHER ACROSS SOUTH DAKOTA  *****

CITY           SKY/WX    TMP DP  RH WIND       PRES   REMARKS
SIOUX FALLS    CLEAR     48  45  89 NE3       30.36S
6HR MIN TEMP:  47; 6HR MAX TEMP:  65;

BROOKINGS      CLEAR     49  46  90 SE9       30.35F
WATERTOWN      CLEAR     53  46  77 SE8       30.35S
6HR MIN TEMP:  53; 6HR MAX TEMP:  62;

HURON          CLEAR     48  44  86 SE7       30.32F
6HR MIN TEMP:  48; 6HR MAX TEMP:  65;

SISSETON         N/A     42  40  92 S5        30.36F
ABERDEEN       CLEAR     47  43  86 SE8       30.32F
6HR MIN TEMP:  46; 6HR MAX TEMP:  64;

MITCHELL       CLEAR     49  45  86 SE5       30.34S
PIERRE         CLEAR     55  46  71 SE16      30.24F
6HR MIN TEMP:  55; 6HR MAX TEMP:  67;

MOBRIDGE       CLEAR     58  46  64 S16G22    30.23S
RAPID CITY     MOCLDY    62  43  49 SE15      30.17F
6HR MIN TEMP:  58; 6HR MAX TEMP:  75;

$$

  *****  SOME WEATHER IN NEARBY STATES *****

CITY           SKY/WX    TMP DP  RH WIND       PRES   REMARKS
GLASGOW MT     CLOUDY    61  47  59 E12       29.98F
6HR MIN TEMP:  61; 6HR MAX TEMP:  77;

GREAT FALLS MT CLEAR     51  47  86 SW8       30.05S
6HR MIN TEMP:  50; 6HR MAX TEMP:  74;

CHEYENNE WY    CLOUDY    55  40  56 CALM      30.29F
6HR MIN TEMP:  54; 6HR MAX TEMP:  72;

SCOTTSBLUFF NE PTCLDY    56  41  57 SE10      30.24S
6HR MIN TEMP:  56; 6HR MAX TEMP:  75;

OMAHA NE       CLEAR     49  45  86 NW8       30.33F
6HR MIN TEMP:  49; 6HR MAX TEMP:  68;

DES MOINES IA  CLEAR     59  49  69 NE8       30.30F
6HR MIN TEMP:  59; 6HR MAX TEMP:  70;

DAVENPORT IA   CLEAR     54  51  90 NW7       30.24F
6HR MIN TEMP:  53; 6HR MAX TEMP:  66;

CHICAGO IL     CLOUDY    60  58  92 N12       30.16F
6HR MIN TEMP:  60; 6HR MAX TEMP:  63; 6HR PCP:  0.05;

EAU CLAIRE WI  CLEAR     53  52  96 NE5       30.38F
6HR MIN TEMP:  53; 6HR MAX TEMP:  63;

LA CROSSE WI   CLEAR     53  53 100 NW5       30.34F
6HR MIN TEMP:  53; 6HR MAX TEMP:  65;

$$

  *****  SOME NATIONAL WEATHER *****

CITY           SKY/WX    TMP DP  RH WIND       PRES   REMARKS
LA GUARDIA NY  CLOUDY    61  54  77 NE24      30.33F
6HR MIN TEMP:  60; 6HR MAX TEMP:  65; 6HR PCP: TRACE;              C1F1C2F2C3F3C4F4C5F5C6F6C7F7C8F8C9F9CaFaCbFbCcFcCdFdCe!



USA.gov is the U.S. government's official web portal to all federal, state and local government web resources and services.